DECAYED
Showing default

ICEYE-X32, 58293 (Decayed)

Orbit data source: Space-Track

ICEYE-X32, 58293 was a payload satellite owned by ICEYE (FI) in LEO that was launched on Sat, 11 Nov 2023 UTC via an FALCON 9 launch vehicle from the Air Force Western Test Range (AFWTR). Payload-class satellites include a variety of spacecraft equipped with specific instruments for various scientific and technological missions. These include communications satellites like Starlink; space stations such as the ISS; scientific satellites like the Hubble; Earth observation satellites from companies like Planet Labs, Umbra, and HawkEye 360; GPS; miniature CubeSats for education and research; and military/defense satellites.

Not visible in the next 10 days
Identifier
58293, 2023-174AP
Orbit
Decayed
Country
Flag of FIFI / FIN
Related business
Manufacturer
ICEYE
Mission
Decayed Commercial Radar Imaging
Bus & Motor
ICEYE, Unknown motor
Mass
90 kg wet, 89 kg dry
Launch date (UTC)
2023-11-11 (3 years ago)
Launch vehicle
FALCON 9
Launch site
Air Force Western Test Range (AFWTR)
Object type
Payload
Rocket body
Debris
Shape & HBR
Box + 1 Pan, 1.6 m
Radar Cross Section
0.825 m², Large (>1 m²)

Expand to show TLE details & history
Last TLE update: 1 year ago

TLE from 1 year ago
0 ICEYE-X32
1 58293U 23174AP  25089.75834505  .12620278  25498-5  71407-3 0  9998
2 58293  97.3962 177.5955 0013473 271.8948  88.0809 16.40913598 77970
Epoch: 2025-03-30T18:12Z
TLE epoch observation values (Epoch: 2025-03-30T18:12:01.012Z)
Latitude
0.00001°
Longitude
76.20729°
Altitude
166.343 km
Speed
7.807 km/s
True Right ascension
11h 50m 22s
True Declination
0° 00' 00"
Sunlit
Object was in full shadow at epoch
Visualization orbit readout
Latitude
Unknown
Longitude
Unknown
Altitude
Unknown
Speed
Unknown
Apparent Right ascension
Unknown
Apparent Declination
Unknown
Sunlit
N/A
Visualization observer readout
Local Sidereal Time
21:35:12
Azimuth
Unknown
Elevation
Unknown
Doppler factor
Unknown
Orbital elements
Apogee altitude
168.989 km
Perigee altitude
151.37 km
Semi-major axis
6,538.317 km
Eccentricity
0.00135
Inclination
97.3962°
RAAN
177.5955°
Arg. of periapsis
271.8948°
True anomaly
88.23521°
Mean anomaly
88.0809°
Eccentric anomaly
88.15805°
Mean motion
4.10529 °/min
Orbital period
87.69 mins
BSTAR
0.00071407
Loading maneuver chart data...
Computing Atmospheric mass density...

Documentation

Showing up to 5 results
|